Weather History for KPVB - April, 2013

Change the Weather History Date:

Friday, April 12, 2013

  Actual Average (KDBQ) Record (KDBQ)
Temperature  
Mean Temperature 37 °F 47 °F  
Max Temperature 41 °F 57 °F 82 °F (1941)
Min Temperature 33 °F 37 °F 19 °F (1957)
Degree Days  
Heating Degree Days 28 18  
Month to date heating degree days 245  
Since 1 July heating degree days 6556  
Cooling Degree Days 0 0  
Month to date cooling degree days 0  
Year to date cooling degree days 0  
Moisture  
Dew Point 32 °F    
Average Humidity 86    
Maximum Humidity 93    
Minimum Humidity 75    
Precipitation  
Precipitation 0.00 in 0.12 in 2.10 in (1889)
Month to date precipitation 1.34  
Year to date precipitation 6.36  
Snow  
Snow 0.00 in 0.10 in - ()
Month to date snowfall 1.2  
Since 1 July snowfall 41.1  
Snow Depth -    
Sea Level Pressure  
Sea Level Pressure 29.67 in    
Wind  
Wind Speed 12 mph (West)    
Max Wind Speed 21 mph    
Max Gust Speed 25 mph    
Visibility 8 miles    
Events      
T = Trace of Precipitation, MM = Missing Value Source: NWS Daily Summary

Daily Weather History Graph

Daily Weather History Graph

Search for Another Location

Airport or City:

Trip Planner

Search our weather history database for the weather conditions in past years. The results will help you decide how hot, cold, wet, or windy it might be!

Date:

Astronomy

Apr. 12, 2013 Rise Set
Actual Time 6:24 AM CDT 7:40 PM CDT
Civil Twilight 5:55 AM CDT 8:09 PM CDT
Nautical Twilight 5:20 AM CDT 8:45 PM CDT
Astronomical Twilight 4:43 AM CDT 9:22 PM CDT
Moon 7:31 AM CDT (4/12) 10:15 PM CDT (4/12)
Length of Visible Light 14h 14m
Length of Day
13h 15m
Waxing Crescent, 5% of the Moon is Illuminated
Apr 12
Waxing Crescent
Apr 18
First Quarter
Apr 25
Full
May 2
Last Quarter
May 9
New

Hourly Weather History & Observations

Time (CDT) Temp. Windchill Dew Point Humidity Pressure Visibility Wind Dir Wind Speed Gust Speed Precip Events Conditions
12:15 AM 35.6 °F 27.1 °F 33.8 °F 93% 29.57 in 7.0 mi WSW 12.7 mph - N/A   Overcast
12:35 AM 35.6 °F 26.6 °F 33.8 °F 93% 29.57 in 5.0 mi SW 13.8 mph - N/A   Overcast
12:55 AM 35.6 °F 27.5 °F 33.8 °F 93% 29.57 in 3.0 mi WSW 11.5 mph - N/A   Overcast
1:15 AM 35.6 °F 28.0 °F 33.8 °F 93% 29.57 in 2.0 mi WSW 10.4 mph - N/A   Overcast
1:35 AM 35.6 °F 27.1 °F 33.8 °F 93% 29.57 in 2.5 mi WSW 12.7 mph - N/A   Overcast
1:55 AM 35.6 °F 27.5 °F 33.8 °F 93% 29.56 in 2.5 mi WSW 11.5 mph - N/A   Overcast
2:15 AM 35.6 °F 28.0 °F 33.8 °F 93% 29.56 in 2.5 mi WSW 10.4 mph - N/A   Overcast
2:55 AM 35.6 °F 28.0 °F 33.8 °F 93% 29.56 in 4.0 mi WSW 10.4 mph - N/A   Overcast
3:15 AM 35.6 °F 29.2 °F 33.8 °F 93% 29.55 in 2.5 mi WSW 8.1 mph - N/A   Overcast
3:35 AM 35.6 °F 27.5 °F 33.8 °F 93% 29.55 in 5.0 mi WSW 11.5 mph - N/A   Overcast
3:55 AM 33.8 °F 26.4 °F 32.0 °F 93% 29.55 in 5.0 mi WSW 9.2 mph - N/A   Overcast
4:15 AM 33.8 °F 25.8 °F 32.0 °F 93% 29.55 in 5.0 mi WSW 10.4 mph - N/A   Overcast
4:35 AM 33.8 °F 26.4 °F 32.0 °F 93% 29.55 in 5.0 mi WSW 9.2 mph - N/A   Overcast
4:55 AM 33.8 °F 25.8 °F 32.0 °F 93% 29.55 in 7.0 mi SW 10.4 mph - N/A   Overcast
5:15 AM 33.8 °F 25.8 °F 32.0 °F 93% 29.55 in 5.0 mi SW 10.4 mph - N/A   Overcast
5:35 AM 33.8 °F 25.8 °F 32.0 °F 93% 29.55 in 5.0 mi SW 10.4 mph - N/A   Overcast
5:55 AM 33.8 °F 26.4 °F 32.0 °F 93% 29.55 in 5.0 mi SW 9.2 mph - N/A   Overcast
6:15 AM 33.8 °F 26.4 °F 32.0 °F 93% 29.55 in 5.0 mi WSW 9.2 mph - N/A   Overcast
6:35 AM 33.8 °F 27.0 °F 32.0 °F 93% 29.55 in 5.0 mi WSW 8.1 mph - N/A   Overcast
6:55 AM 33.8 °F 26.4 °F 32.0 °F 93% 29.55 in 3.0 mi WSW 9.2 mph - N/A   Overcast
7:15 AM 35.6 °F 29.2 °F 33.8 °F 93% 29.56 in 3.0 mi WSW 8.1 mph - N/A   Overcast
7:55 AM 35.6 °F 29.2 °F 33.8 °F 93% 29.57 in 3.0 mi WSW 8.1 mph - N/A   Overcast
8:15 AM 35.6 °F 27.5 °F 33.8 °F 93% 29.57 in 4.0 mi WSW 11.5 mph - N/A   Overcast
8:35 AM 35.6 °F 27.5 °F 33.8 °F 93% 29.58 in 5.0 mi WSW 11.5 mph - N/A   Overcast
8:55 AM 35.6 °F 27.5 °F 33.8 °F 93% 29.58 in 7.0 mi West 11.5 mph - N/A   Overcast
9:15 AM 35.6 °F 26.6 °F 33.8 °F 93% 29.59 in 5.0 mi West 13.8 mph - N/A   Overcast
9:35 AM 37.4 °F 29.3 °F 33.8 °F 87% 29.60 in 4.0 mi West 12.7 mph - N/A   Overcast
9:55 AM 37.4 °F 29.8 °F 35.6 °F 93% 29.60 in 10.0 mi West 11.5 mph - N/A   Overcast
10:15 AM 37.4 °F 29.3 °F 33.8 °F 87% 29.61 in 10.0 mi West 12.7 mph - N/A   Overcast
10:35 AM 37.4 °F 29.8 °F 33.8 °F 87% 29.62 in 10.0 mi West 11.5 mph - N/A   Overcast
10:55 AM 37.4 °F 29.8 °F 33.8 °F 87% 29.62 in 10.0 mi West 11.5 mph - N/A   Overcast
11:15 AM 39.2 °F 33.0 °F 33.8 °F 81% 29.62 in 10.0 mi WNW 9.2 mph - N/A   Overcast
11:35 AM 41.0 °F 34.3 °F 33.8 °F 76% 29.62 in 10.0 mi WNW 11.5 mph - N/A   Overcast
11:55 AM 41.0 °F 32.8 °F 33.8 °F 76% 29.64 in 10.0 mi West 16.1 mph 21.9 mph N/A   Overcast
12:15 PM 37.4 °F 26.9 °F 33.8 °F 87% 29.65 in 10.0 mi West 20.7 mph 24.2 mph N/A   Overcast
12:55 PM 37.4 °F 29.3 °F 32.0 °F 81% 29.67 in 10.0 mi West 12.7 mph 21.9 mph N/A   Overcast
1:15 PM 35.6 °F 24.5 °F 32.0 °F 87% 29.68 in 10.0 mi West 20.7 mph 25.3 mph N/A   Overcast
1:35 PM 35.6 °F 25.5 °F 32.0 °F 87% 29.69 in 10.0 mi West 17.3 mph 21.9 mph N/A   Overcast
1:55 PM 35.6 °F 26.6 °F 32.0 °F 87% 29.69 in 10.0 mi West 13.8 mph - N/A   Overcast
2:15 PM 35.6 °F 26.2 °F 32.0 °F 87% 29.70 in 10.0 mi WNW 15.0 mph - N/A   Overcast
2:35 PM 35.6 °F 26.2 °F 30.2 °F 81% 29.71 in 10.0 mi West 15.0 mph 23.0 mph N/A   Overcast
2:55 PM 35.6 °F 25.9 °F 30.2 °F 81% 29.73 in 10.0 mi West 16.1 mph 24.2 mph N/A   Overcast
3:15 PM 35.6 °F 25.9 °F 30.2 °F 81% 29.73 in 10.0 mi West 16.1 mph 24.2 mph N/A   Overcast
3:35 PM 35.6 °F 25.5 °F 30.2 °F 81% 29.74 in 10.0 mi West 17.3 mph 20.7 mph N/A   Overcast
3:55 PM 35.6 °F 25.9 °F 30.2 °F 81% 29.74 in 10.0 mi West 16.1 mph 21.9 mph N/A   Overcast
4:15 PM 35.6 °F 25.9 °F 30.2 °F 81% 29.74 in 10.0 mi West 16.1 mph - N/A   Overcast
4:35 PM 35.6 °F 27.1 °F 30.2 °F 81% 29.75 in 10.0 mi West 12.7 mph 17.3 mph N/A   Overcast
4:55 PM 35.6 °F 25.5 °F 30.2 °F 81% 29.76 in 10.0 mi West 17.3 mph 23.0 mph N/A   Overcast
5:15 PM 35.6 °F 26.2 °F 30.2 °F 81% 29.77 in 10.0 mi West 15.0 mph 23.0 mph N/A   Overcast
5:55 PM 35.6 °F 26.2 °F 28.4 °F 75% 29.79 in 10.0 mi West 15.0 mph 25.3 mph N/A   Overcast
6:15 PM 35.6 °F 25.2 °F 30.2 °F 81% 29.79 in 10.0 mi West 18.4 mph - N/A   Overcast
6:35 PM 35.6 °F 27.1 °F 28.4 °F 75% 29.79 in 10.0 mi West 12.7 mph - N/A   Overcast
6:55 PM 35.6 °F 26.2 °F 30.2 °F 81% 29.79 in 10.0 mi West 15.0 mph 18.4 mph N/A   Overcast
7:15 PM 33.8 °F 25.3 °F 28.4 °F 81% 29.79 in 10.0 mi West 11.5 mph 18.4 mph N/A   Overcast
7:35 PM 33.8 °F 24.3 °F 28.4 °F 81% 29.80 in 10.0 mi West 13.8 mph 18.4 mph N/A   Overcast
7:55 PM 33.8 °F 25.8 °F 28.4 °F 81% 29.80 in 10.0 mi West 10.4 mph 18.4 mph N/A   Overcast
8:15 PM 33.8 °F 25.8 °F 30.2 °F 87% 29.81 in 10.0 mi West 10.4 mph 16.1 mph N/A   Overcast
8:35 PM 33.8 °F 23.9 °F 28.4 °F 81% 29.81 in 10.0 mi West 15.0 mph - N/A   Overcast
8:55 PM 33.8 °F 24.3 °F 28.4 °F 81% 29.82 in 10.0 mi West 13.8 mph 21.9 mph N/A   Overcast
9:15 PM 33.8 °F 24.8 °F 28.4 °F 81% 29.83 in 10.0 mi West 12.7 mph 21.9 mph N/A   Overcast
9:35 PM 33.8 °F 24.3 °F 28.4 °F 81% 29.83 in 10.0 mi West 13.8 mph - N/A   Overcast
9:55 PM 33.8 °F 25.3 °F 28.4 °F 81% 29.83 in 10.0 mi WSW 11.5 mph - N/A   Overcast
10:15 PM 33.8 °F 25.3 °F 28.4 °F 81% 29.84 in 10.0 mi WSW 11.5 mph - N/A   Overcast
10:35 PM 33.8 °F 25.3 °F 28.4 °F 81% 29.84 in 10.0 mi West 11.5 mph 15.0 mph N/A   Overcast
10:55 PM 33.8 °F 24.3 °F 28.4 °F 81% 29.84 in 10.0 mi West 13.8 mph - N/A   Overcast
11:15 PM 33.8 °F 23.9 °F 28.4 °F 81% 29.83 in 10.0 mi West 15.0 mph 20.7 mph N/A   Overcast
11:35 PM 33.8 °F 25.3 °F 28.4 °F 81% 29.84 in 10.0 mi West 11.5 mph 19.6 mph N/A   Overcast
11:55 PM 33.8 °F 24.8 °F 28.4 °F 81% 29.84 in 10.0 mi West 12.7 mph 19.6 mph N/A   Overcast